Regional Weather Roundup
Issued by NWS Upton, NY

Current Version | Previous Version | Graphics & Text | Print | Product List | Glossary Off
Versions: 1 2 3 4 5 6 7 8 9 10 11 12 13 14 15 16 17 18 19 20 21 22 23 24 25 26 27 28 29 30 31 32 33 34 35 36 37 38 39 40 41 42 43 44 45 46 47 48 49 50

354
ASUS41 KOKX 230308
RWROKX

REGIONAL WEATHER ROUNDUP
NATIONAL WEATHER SERVICE NEW YORK NY
1100 PM EDT TUE AUG 22 2017

NOTE: "FAIR" INDICATES FEW OR NO CLOUDS BELOW 12,000 FEET WITH NO
SIGNIFICANT WEATHER AND/OR OBSTRUCTIONS TO VISIBILITY.

NYZ071-072-176-178-NJZ106-104-230400-
NEW YORK CITY METRO AREA

CITY           SKY/WX    TMP DP  RH WIND       PRES   REMARKS
Central Park   LGT RAIN  82  72  71 VRB7G25   29.82R
Bronx Bot Gard   N/A     82  70  65 SE15      29.78R
LaGuardia APRT CLOUDY    83  73  72 SW23G32   29.78R THUNDER
Kennedy INTL   CLOUDY    79  75  87 SW21      29.81R
Breezy Point     N/A     77 N/A N/A SW10G17     N/A
Newark/Liberty TSTM      74  70  87 SW16G31   29.80R FOG
Teterboro      TSTM      80  72  76 SW21G30   29.76R
$$

NYZ177-179-078>081-230400-
LONG ISLAND NEW YORK

CITY           SKY/WX    TMP DP  RH WIND       PRES   REMARKS
Jones Beach      N/A     75 N/A N/A SW9G20      N/A
Matinecock PT    N/A     81 N/A N/A SW17        N/A
Farmingdale    CLOUDY    77  74  90 SW17G28   29.79R
MacArthur/ISP  CLOUDY    78  75  90 SW21G28   29.78F
Shirley        CLOUDY    78  75  90 SW15G28   29.79F
Mt Sinai Harb    N/A    N/A N/A N/A S14G26      N/A
Westhampton    CLOUDY    75  72  90 SW13G23   29.81F
East Hampton   MOCLDY    73  71  93 SW13G20   29.78F
Montauk          N/A     74  73  97 SW12G18   29.80F
$$

NYZ052-065-067-230400-
HUDSON VALLEY

CITY           SKY/WX    TMP DP  RH WIND       PRES   REMARKS
White Plains   TSTM      80  71  74 VRB5G18   29.77R
Larchmont Harb   N/A     77 N/A N/A S20         N/A
Croton On Huds   N/A     79 N/A N/A SW15        N/A
Newburgh       RAIN      73  72  94 W17       29.78R FOG
Montgomery     CLOUDY    74  72  93 SW6       29.75F
Poughkeepsie   TSTM      73  71  93 W12G26    29.74R VSB 1/2
Albany         LGT RAIN  72  67  84 S7        29.71S
$$

NJZ001-105-106-008-010-013-015-019>022-104-230400-
NEW JERSEY

CITY           SKY/WX    TMP DP  RH WIND       PRES   REMARKS
Newark/Liberty TSTM      74  70  87 SW16G31   29.80R FOG
Teterboro      TSTM      80  72  76 SW21G30   29.76R
Caldwell       CLOUDY    74  73  97 W5        29.78R
Somerville     RAIN      72  71  97 S6        29.80R
Linden         TSTM      73  69  88 W8G23     29.81R
Perth Amboy      N/A     72 N/A N/A W21         N/A
Sussex         CLOUDY    74  70  87 SW6       29.78R
Andover          N/A     73  69  87 SW8G17    29.80R
Trenton        LGT RAIN  82  73  74 SW7       29.80R
Millville      CLEAR     81  78  91 SW8       29.82R
Atlantic City  CLOUDY    79  76  90 S10G21    29.82S
Wrightstown    PTCLDY    78  75  88 SW9       29.79R
Toms River     PTCLDY    77  75  93 SW9       29.82R
Belmar         PTCLDY    78  74  87 SW12      29.82R
$$

PAZ047>061-062-071-230400-
EASTERN PENNSYLVANIA

CITY           SKY/WX    TMP DP  RH WIND       PRES   REMARKS
Philadelphia   CLOUDY    83  72  69 SW14      29.80R
Allentown      CLOUDY    73  69  87 W6        29.79F
Scranton       CLOUDY    73  71  93 W6        29.79S THUNDER
$$

CTZ002-004>006-009-010-012-RIZ004-006-007-MAZ004-011-015-230400-
SOUTHERN NEW ENGLAND
 IN CT

CITY           SKY/WX    TMP DP  RH WIND       PRES   REMARKS
Bradley INTL   TSTM      79  74  84 S12       29.71F
Hartford       CLOUDY    79  73  82 S12       29.71F
Danbury        RAIN      80  73  79 SW13      29.76F
Wtrbury/Oxford CLOUDY    76  72  87 S9G16     29.77F
Norwalk Harbor   N/A     79 N/A N/A S16G22      N/A
Bridgeport     CLOUDY    78  72  81 SW18      29.74F
Meriden        CLOUDY    77  71  82 S10       29.73F
New Haven      PTCLDY    77  72  84 SW10      29.75F
Chester        MOCLDY    75  73  94 S9G18     29.77F
Groton         MOCLDY    75  71  87 SW21G30   29.76F
Wilimantic     PTCLDY    77  73  87 S10       29.75F

 IN RI

CITY           SKY/WX    TMP DP  RH WIND       PRES   REMARKS
Providence     MOCLDY    76  72  87 SW16G23   29.77F
Block Island   CLOUDY    72  71  97 SW17G28   29.80S
Westerly       CLOUDY    74  72  93 SW10G25   29.79F
 IN MA

CITY           SKY/WX    TMP DP  RH WIND       PRES   REMARKS
Boston         MOCLDY    75  71  87 S14       29.71F
Worcester      PTCLDY    75  70  84 SW21G28   29.74S
Westfield      LGT RAIN  78  75  90 S12       29.69F
Provincetown   CLOUDY    73  69  87 SW17G24   29.76F
Nantucket      CLOUDY    70  70 100 S18       29.82F FOG
$$

ANZ330-335-338-340-345-350-353-355-230400-
COASTAL MARINE OBSERVATIONS


STATION/POSITION TIME  SKY/WX   TEMP    WIND        PRES    VSBY  WAVE
                                AIR SEA DIR/SP/G                  HT/PER
                 (UTC)          (F)     (DEG/KT/KT) (MB)    (MI)  (FT/S)
NY HARB ENTRANCE 0150            76 75  210/ 23/ 29 1007.3          6/ 6
GREAT SOUTH BAY  0230            77 79  220/ 19/ 23   N/A
23 SSW MONTAUK P 0150            75 73              1009.1          6/ 6
15 E BARNEGAT LI 0200               77                N/A           7/ 6
HUDSON CANYON    0150            77 76  200/ 21/ 25 1009.9          6/ 6
KINGS POINT      0224            80 76  220/ 16/ 20 1007.4
EXECUTION ROCKS  NOT AVBL
WESTERN LI SOUND NOT AVBL
CENTRAL LI SOUND NOT AVBL
EASTERN LI SOUND NOT AVBL
ROBBINS REEF     0230                   210/ 16/ 19 1008.4
$$


>>>>>>>>>>>>>>>>>>>>>>>>>>>> KEY <<<<<<<<<<<<<<<<<<<<<<<<<<<
>                                                          <
>     SKY/WX - Sky Condition/Present Weather               <
>     TMP    - Temperature in Fahrenheit                   <
>     DP     - Dew Point in Fahrenheit                     <
>     RH     - Relative Humidity in Percent                <
>     WIND   - Direction (from) and Speed in MPH           <
>     PRES   - Mean Sea Level Pressure (inches of Hg)      <
>     WCI    - Wind Chill Index                            <
>     VSB    - VISIBILITY IN MILES                         <
>     HX     - HEAT INDEX                                  <
>     TC     - TEMPERATURE IN CELSIUS                      <
>     VRB    - VARIABLE WIND DIRECTION                     <
>                                                          <
>>>>>>>>>>>>>>>>>>>>>>>>>>>> KEY <<<<<<<<<<<<<<<<<<<<<<<<<<<




USA.gov is the U.S. government's official web portal to all federal, state and local government web resources and services.